#timestamp,LO_Frequency,Hit,StdDev 
1544342415.8,286047001.6,N
1544342435.7,286047001.4,N
1544342455.5,286047003.9,N
1544342475.4,286047003.2,N
1544342495.2,286047005.4,N
1544342515.0,286047005.1,N
1544342515.9,286047005.1,N
1544342535.8,286047004.8,N
1544342555.7,286047007.5,N
1544342575.6,286047007.6,N
1544342595.4,286047004.6,N
1544342615.3,286047005.5,N
1544342635.1,286047002.9,N
1544342655.8,286047004.4,N
1544342675.7,286047004.2,N
1544342695.5,286047003.5,N
1544342715.4,286047004.2,N
1544342735.2,286047001.4,N
1544342755.0,286047001.8,N
1544342755.9,286047001.8,N
1544342775.8,286047004.1,N
1544342795.6,286047003.6,N
1544342815.4,286047004.0,N
1544342835.3,286047004.0,N
1544342855.1,286047005.6,Y
1544342875.9,286047000.0,P
1544342895.7,286047002.8,N
1544342915.5,286047002.6,N
1544342935.4,286047000.2,N
1544342955.2,286047000.2,N
1544342975.1,286047002.7,N
1544342976.0,286047002.7,N
1544342995.8,286047002.2,N
1544343015.6,286047000.2,N
1544343035.5,286047000.5,N
1544343055.3,286047000.7,N
1544343075.2,286047001.2,N
1544343095.9,286046998.2,N
1544343115.7,286046998.5,N
1544343135.6,286046998.8,N
1544343155.4,286046996.5,N
1544343175.2,286046996.6,N
1544343195.1,286046999.1,N
1544343196.0,286046999.1,N
1544343215.8,286046998.8,N
1544343235.7,286046998.3,N
1544343255.5,286046998.3,N
1544343275.3,286046999.1,N
1544343295.2,286046996.9,N
1544343315.0,286046999.1,N
1544343315.9,286046999.1,N
1544343335.7,286046998.8,N
1544343355.6,286047001.2,N
1544343375.4,286046998.4,N
1544343395.3,286046998.6,N
1544343415.1,286046998.8,N
1544343416.0,286046998.8,N
1544343435.8,286046998.2,N
1544343455.7,286047001.1,N
1544343475.5,286047000.7,N
1544343495.3,286046998.8,N
1544343515.2,286047001.1,N
1544343535.0,286046998.7,N
1544343535.9,286046998.7,N
1544343555.8,286046998.4,N
1544343575.6,286046998.9,N
1544343595.4,286046999.3,N
1544343615.3,286046999.2,N
1544343635.1,286046996.7,Y
1544343655.9,286046998.8,P
1544343675.7,286046998.6,P
1544343695.5,286046998.5,P
1544343715.4,286047000.3,N
1544343735.2,286046998.3,N
1544343755.0,286047000.9,N
1544343755.9,286047000.9,N
1544343775.8,286047001.1,N
1544343795.6,286047000.8,N
1544343815.5,286046999.7,N
1544343835.3,286047002.7,N
1544343855.1,286046999.9,N
1544343875.9,286047000.7,N
1544343895.7,286047000.1,N
1544343915.5,286046999.9,N
1544343935.4,286046999.9,N
1544343955.2,286046999.8,N
1544343975.1,286047000.3,N
1544343976.0,286047000.3,N
1544343995.8,286047000.4,N
1544344015.6,286047001.0,N
1544344035.5,286047000.3,N
1544344055.3,286047000.3,N
1544344075.1,286047002.3,N
1544344095.9,286047002.1,N
1544344115.7,286047002.0,N
1544344135.6,286047001.7,N
1544344155.4,286047001.5,N
1544344175.2,286047001.4,N
1544344195.1,286047001.9,N
1544344196.0,286047001.9,N
1544344215.8,286047001.6,N
1544344235.7,286046999.8,N
1544344255.5,286047002.2,N
1544344275.3,286047001.5,N
1544344295.2,286047002.1,N
1544344315.0,286047000.2,N
1544344335.3,286047000.0,N
1544344355.2,286047000.5,N
1544344375.0,286047000.4,N
1544344375.9,286047000.4,N
1544344395.7,286047002.4,N
1544344415.6,286047002.5,N
1544344435.4,286047002.0,N
1544344455.3,286047002.2,N
1544344475.1,286047002.5,N
1544344476.0,286047002.5,N
1544344495.9,286047000.4,N
1544344515.7,286046999.9,N
1544344535.5,286047000.4,N
1544344555.5,286047001.0,N
1544344575.3,286046998.5,N
1544344595.2,286047002.8,N
1544344615.0,286047002.1,N
1544344615.9,286047002.1,N
1544344635.8,286047002.6,N
1544344655.6,286047002.3,N
1544344675.4,286047001.6,N
1544344695.3,286047002.3,N
1544344715.1,286047002.8,N
1544344735.8,286047000.4,N
1544344755.7,286047000.0,N
1544344775.5,286046999.7,N
1544344795.4,286046999.7,N
1544344815.2,286047002.7,N
1544344835.0,286047002.6,N
1544344835.9,286047002.6,N
1544344855.8,286047002.3,N
1544344875.6,286047002.1,N
1544344895.4,286046999.7,N
1544344915.5,286047002.4,N
1544344935.3,286047002.1,N
1544344955.1,286046999.9,N
1544344975.9,286047001.7,N
1544344995.7,286047001.5,N
1544345015.5,286046999.8,N
1544345035.4,286046999.7,N
1544345055.2,286047000.2,N
1544345075.0,286046998.1,N
1544345075.9,286046998.1,N
1544345095.8,286046999.4,N
1544345115.6,286046998.7,N
1544345135.4,286046998.3,N
1544345155.3,286046998.9,N
1544345175.1,286046998.6,N
1544345195.9,286047000.0,N
1544345215.7,286047000.9,N
1544345235.5,286047000.2,N
1544345255.4,286047001.0,N
1544345275.2,286047000.6,N
1544345295.0,286047000.3,N
1544345296.0,286047000.3,N
1544345315.8,286046999.7,N
1544345335.6,286047000.0,N
1544345355.5,286046999.7,N
1544345375.3,286047000.0,N
1544345395.1,286047000.5,N
1544345415.9,286047000.2,N
1544345435.7,286046999.8,N
1544345455.6,286047002.7,N
1544345475.4,286046999.8,N
1544345495.2,286046999.8,N
1544345515.1,286047000.2,N
1544345516.0,286047000.2,N
1544345535.8,286046999.9,N
1544345555.7,286047000.9,N
1544345575.5,286047000.5,N
1544345595.3,286047000.2,N
1544345615.2,286047000.1,N
1544345635.0,286047000.4,N
1544345635.9,286047000.4,N
1544345655.8,286047000.6,N
1544345675.6,286047000.2,N
1544345695.4,286047002.8,Y
1544345715.3,286046999.9,P
1544345735.1,286047001.0,P
1544345755.8,286047000.3,N
1544345775.6,286047000.9,N
1544345795.5,286047001.2,N
1544345815.3,286047000.5,N
1544345835.2,286047000.9,N
1544345855.9,286047002.7,Y
1544345875.7,286046999.9,P
1544345895.6,286047000.7,N
1544345915.4,286047001.1,N
1544345935.3,286046998.1,Y
1544345955.1,286046998.5,P
1544345956.0,286046998.5,N
1544345975.8,286047000.1,N
1544345995.7,286046999.9,N
